www.pogodaiklimat.ru

Погода и климат >> Архив погоды >> Латвия >> Павилоста


ПОГОДА в Павилосте

  • Прогноз погоды в Павилосте
  • Монитор погоды в Павилосте

АРХИВ ПОГОДЫ в Павилосте

Время (UTC), дата Ветер
(напр.,м/с)
 
Видим.   Явления Облачность Т
(С)
Тd
(С)
f
(%)
Тe
(С)
Тes
(С)
Комфортность P
(гПа)
Po
(гПа)
Тmin
(С)
Tmax
(С)
R
(мм)
R24
(мм)
S
(см)
15 18.06 СЗ 3-4
{5}
20 км н/о +20.9 +13.4 62 +24 +24 комфорт 1020.0 1019.0
18 18.06 СЗ 1-2
{4}
н/о н/о +19.7 +12.4 63 +22 +22 комфорт 1018.8 1017.7
21 18.06 ЮВ 2-2
{2}
19 км н/о +13.0 +12.1 94 +12 +12 1018.5 1017.4
00 19.06 ЮВ 3-3
{3}
16 км н/о +10.0 +9.5 97 +8 +8 1018.3 1017.1
03 19.06 ЮВ 3-3
{3}
20 км н/о +9.9 +9.2 95 +8 +8 1017.4 1016.3
06 19.06 Ю 2-4
{5}
20 км н/о +21.0 +13.4 62 +24 +24 комфорт 1017.1 1016.1
09 19.06 ЮЗ 4-6
{7}
20 км н/о +24.6 +12.5 47 +26 +26 жарко 1016.6 1015.5
12 19.06 З 3-6
{8}
19 км н/о +25.3 +12.4 45 +27 +27 жарко 1015.9 1014.8
15 19.06 С 3-5
{6}
20 км н/о +22.1 +13.9 60 +25 +25 комфорт 1014.7 1013.6
18 19.06 В 1-2
{5}
20 км н/о +22.3 +11.9 52 +25 +25 комфорт 1012.8 1011.7
21 19.06 В 3-4
{4}
20 км н/о +18.3 +14.1 76 +19 +19 1012.6 1011.5
00 20.06 ЮВ 3-4
{4}
20 км н/о +18.0 +13.4 74 +18 +18 1011.8 1010.7
03 20.06 ЮВ 3-4
{6}
20 км н/о +18.3 +13.9 76 +19 +19 1010.5 1009.4
06 20.06 Ю 2-3
{5}
20 км н/о +23.9 +15.6 60 +27 +27 жарко 1009.9 1008.8
09 20.06 Ю 4-8
{9}
20 км н/о +28.0 +16.5 50 +32 +32 душно 1009.6 1008.5
12 20.06 ЮЗ 4-9
{9}
20 км н/о +26.9 +17.6 57 +31 +31 душно 1009.0 1007.9
15 20.06 ЮЗ 4-7
{9}
20 км н/о +26.3 +17.3 58 +30 +30 душно 1008.8 1007.7
18 20.06 Ю 1-2
{3}
19 км н/о +22.8 +17.4 72 +28 +28 душно 1009.2 1008.1
21 20.06 ЮЗ 2-4
{7}
19 км н/о +20.1 +17.0 82 +24 +24 комфорт 1009.5 1008.4
00 21.06 Ю 1-2
{5}
20 км н/о +16.9 +14.8 87 +18 +18 1010.2 1009.1
03 21.06 ЮЗ 2-4
{4}
19 км н/о +18.1 +16.7 92 +19 +19 1010.7 1009.6
06 21.06 ЮЗ 3-5
{6}
20 км н/о +19.9 +16.1 79 +23 +23 комфорт 1011.8 1010.7
09 21.06 З 4-7
{7}
20 км н/о +21.4 +16.3 73 +25 +25 комфорт 1013.3 1012.2
12 21.06 З 4-7
{7}
19 км н/о +20.4 +16.2 77 +23 +23 комфорт 1014.0 1012.9
15 21.06 З 4-7
{8}
20 км н/о +20.5 +15.4 73 +23 +23 комфорт 1014.3 1013.2
18 21.06 З 3-5
{7}
20 км н/о +18.4 +14.7 79 +19 +19 1014.4 1013.4
00 22.06 ЮЗ 2-4
{5}
20 км н/о +15.8 +14.1 90 +16 +16 1015.6 1014.6
03 22.06 З 5-10
{10}
20 км н/о +16.5 +10.3 67 +16 +16 1017.3 1016.2
06 22.06 СЗ 5-8
{10}
20 км н/о +17.3 +9.9 62 +17 +17 1019.4 1018.3
09 22.06 З 6-10
{10}
20 км н/о +17.0 +8.6 58 +16 +16 1021.4 1020.3
12 22.06 З 5-9
{9}
19 км н/о +18.2 +8.9 55 +18 +18 1022.8 1021.7
15 22.06 З 4-6
{8}
20 км н/о +17.5 +9.3 59 +17 +17 1023.0 1021.9
18 22.06 З 3-5
{6}
20 км н/о +16.4 +10.2 67 +16 +16 1022.8 1021.7
21 22.06 ЮВ 2-2
{3}
19 км н/о +11.0 +10.2 95 +10 +10 1023.7 1022.5
00 23.06 ЮВ 2-3
{3}
16 км н/о +8.3 +7.9 97 +6 +6 1024.0 1023.0
03 23.06 ЮВ 3-4
{4}
19 км н/о +7.5 +7.0 97 +4 +4 1024.7 1023.5
06 23.06 Ю 2-4
{4}
20 км н/о +17.6 +9.4 59 +18 +18 1025.0 1024.1
09 23.06 З 4-7
{7}
20 км н/о +18.7 +9.4 55 +19 +19 1025.3 1024.2
12 23.06 З 4-7
{8}
20 км н/о +18.8 +10.5 59 +19 +19 1025.0 1023.9
15 23.06 СЗ 3-5
{6}
20 км н/о +19.1 +10.6 58 +20 +20 1024.9 1023.8
18 23.06 СЗ 1-3
{4}
20 км н/о +17.3 +11.7 70 +18 +18 1024.8 1023.7
21 23.06 10 км н/о
00 24.06 Ю 2-2
{3}
11 км н/о +9.2 +8.7 97 +7 +7 1026.8 1025.6
03 24.06 ЮВ 2-3
{3}
8000 м н/о +7.7 +7.2 97 +5 +5 1027.3 1026.1
06 24.06
{3}
20 км н/о +19.0 +12.4 66 1028.1 1027.0
09 24.06 СЗ 3-5
{5}
19 км н/о +20.2 +10.8 55 +22 +22 комфорт 1029.2 1028.1
12 24.06 -6
{6}
20 км н/о +20.2 +13.6 66 1029.4 1028.4
15 24.06 С 3-6
{6}
20 км н/о +20.8 +11.1 54 +23 +23 комфорт 1029.5 1028.4
18 24.06 С 4-7
{7}
20 км н/о +19.3 +13.6 70 +21 +21 комфорт 1029.2 1028.1
21 24.06 СВ 2-3
{4}
20 км н/о +14.7 +9.6 71 +14 +14 1030.1 1029.1
00 25.06 ЮВ 3-4
{4}
20 км н/о +11.5 +9.2 86 +10 +10 1030.0 1028.8
03 25.06 ЮВ 3-4
{5}
20 км н/о +11.2 +8.7 85 +9 +9 1030.3 1029.1
06 25.06 ЮВ 4-6
{6}
20 км н/о +20.2 +9.1 49 +22 +22 комфорт 1029.6 1028.5
09 25.06 ЮВ 3-5
{5}
20 км н/о +24.3 +8.6 37 +25 +25 комфорт 1029.2 1028.1
12 25.06 С 3 н/о н/о +23.9 +14.8 57 +27 +27 жарко 1028.1 1027.1

 

Местоположение метеостанции Павилоста (Латвия): широта 56.88 долгота 21.18 высота над уровнем моря 10 м.

В архиве по умолчанию представлена погода в Павилосте за последнюю неделю. Архивные данные за месяц целиком и за предыдущие месяцы, начиная с января 2011 года, Вы можете получить, выбрав интересующий диапазон дат из раскрывающегося списка и нажав кнопку "Ввод!".


*Определитесь, кто Вы:
робот инопланетянин человек

Внимание! Время в таблицах - всемирное. Для получения местного времени необходимо прибавить поправку, которая равна 2 ч.

Смотрите также архив погоды в соседних городах и на ближайших метеорологических станциях:

Погода в Лиепае (Латвия) (46 км)
Погода в Вентспилсе (Латвия) (62 км)
Погода в Салдусе (Латвия) (83 км)
Погода в Стенде (Латвия) (89 км)
Погода в Мажейкяе (Литва) (91 км)
Погода в Тельшяе (Литва) (121 км)
Погода в Сырве (Эстония) (127 км)
Погода в Kлайпеде (Литва) (128 км)
Погода в Мерсрагсе (Латвия) (128 км)
Погода в Колке (Латвия) (129 км)

Пояснения к столбцам:

Ветер - указаны скорость ветра в м/с - средняя за 10 мин, порывы в срок и между сроками (в фигурных скобках) и направление, откуда дует ветер: С - северный, СВ - северо-восточный, В - восточный, ЮВ - юго-восточный, Ю - южный, ЮЗ - юго-западный, З - западный, СЗ - северо-западный.
Видимость - горизонтальная дальность видимости в метрах или километрах. При видимости от 1 до 10 км при отсутствии осадков обычно наблюдается дымка, при ухудшении видимости до 1 км и менее - туман. В сухую погоду видимость может ухудшаться дымом, пылью или мглою.
Явления - указаны атмосферные явления, наблюдавшиеся в срок или в последний час перед сроком; фигурными скобками обозначены явления, наблюдавшиеся между сроками (за 1-3 часа до срока); квадратными скобками обозначены град или гололедные отложения с указанием их диаметра в мм.
Облачность - указаны через наклонную черту общая и нижняя облачность в баллах и высота нижней границы облаков в метрах; квадратными скобками обозначены формы облаков: Ci - перистые, Cs - перисто-слоистые, Cc - перисто-кучевые, Ac - высококучевые, As - высокослоистые, Sc - слоисто-кучевые, Ns - слоисто-дождевые, Cu - кучевые, Cb - кучево-дождевые. Подробнее классификацию облаков см. в Атласе облаков (PDF).
T - Температура воздуха - температура, измеренная на высоте 2 м над землей.
Td - Температура точки росы - температура, при понижении до которой содержащийся в воздухе водяной пар достигнет насыщения.
f - Относительная влажность воздуха - влажноcть воздуха, измеренная на высоте 2 м над землей.
Te - Эффективная температура - температура, которую ощущает одетый по сезону человек в тени. Характеристика душности погоды. При расчете учитывается влияние влажности воздуха и скорости ветра на теплоощущения человека.
Tes - Эффективная температура на солнце - температура, которую ощущает человек, с поправкой на солнечный нагрев. Характеристика знойности погоды. Зависит от высоты солнца над горизонтом, облачности и скорости ветра. Ночью, в пасмурную погоду, а также при ветре 12 м/с и более поправка равна нулю.
P - Атмосферное давление - приведенное к уровню моря атмосферное давление.
Po - Атмосферное давление - измеренное на уровне метеостанции атмосферное давление.
Tmin - Минимальная температура - минимум температуры воздуха на высоте 2 м над землей.
Tmax - Максимальная температура - максимум температуры воздуха на высоте 2 м над землей.
R - Количество осадков - Количество выпавших осадков за период времени, мм. При наведении курсора мыши на число - период времени, за который выпало указанное количество осадков.
R24 - Количество осадков - Количество выпавших осадков за 24 часа, мм.
S - Снежный покров - Высота снежного покрова, см. При наведении курсора мыши на число - состояние снежного покрова и степень покрытия местности в баллах.